Regional Weather Roundup
Issued by NWS

Home | Current Version | Previous Version | Text Only | Print | Product List | Glossary On
Versions: 1 2 3 4 5 6 7 8 9 10 11 12 13 14 15 16 17 18 19 20 21 22 23 24 25 26 27 28 29 30 31 32 33 34 35 36 37 38 39 40 41 42 43 44 45 46 47 48 49 50
000
ASUS44 KLUB 291910
RWRTX
WEST TEXAS WEATHER ROUNDUP
NATIONAL WEATHER SERVICE LUBBOCK TX
200 PM CDT SUN MAR 29 2015

NOTE: "FAIR" INDICATES FEW OR NO CLOUDS BELOW 12,000 FEET WITH NO
SIGNIFICANT WEATHER AND/OR OBSTRUCTIONS TO VISIBILITY.

TXZ004-006>008-010-012-014-016-OKZ002-292000-
TEXAS PANHANDLE/OKLAHOMA PANHANDLE

CITY           SKY/WX    TMP DP  RH WIND       PRES   REMARKS
AMARILLO       SUNNY     72  30  21 N31G45    30.19R
BORGER         SUNNY     74  24  15 N30G37    30.18F
CANADIAN       SUNNY     75  26  16 N24G33    30.14R
DALHART        SUNNY     70  22  16 N30G37    30.25S
DUMAS          SUNNY     69  24  18 NE25G40   30.22S
GUYMON         MOSUNNY   70  23  17 N26G36    30.20F
HEREFORD       SUNNY     74  34  23 NE29G38   30.19S
PAMPA          SUNNY     72  26  18 N23G36    30.18R
PERRYTON       SUNNY     71  23  16 N25G39    30.17S
$$

TXZ026-029-035-045-048-292000-
SOUTHERN PANHANDLE/SOUTH PLAINS/ROLLING PLAINS

CITY           SKY/WX    TMP DP  RH WIND       PRES   REMARKS
CHILDRESS      SUNNY     80  35  19 NE23G43   30.05R
SEMINOLE       SUNNY     84  31  15 NE14G23   30.11S
LUBBOCK        MOSUNNY   83  30  14 N30G43    30.08S
PLAINVIEW      SUNNY     78  31  18 N28G36    30.11S
SNYDER         SUNNY     86  37  17 NW10G18   30.02F
$$

TXZ052-054-060>062-072-078-127-140-154-169-292000-
PERMIAN BASIN/CONCHO VALLEY/BIG COUNTRY/EDWARDS PLATEAU

CITY           SKY/WX    TMP DP  RH WIND       PRES   REMARKS
ABILENE        SUNNY     82  51  34 S13       29.99F
BIG SPRING     SUNNY     94  32  11 NW12G17   30.04F
BRADY          SUNNY     88  48  25 S14       30.01F
BROWNWOOD      SUNNY     84  48  28 SW17G24   29.99F
JUNCTION       SUNNY     87  47  24 S16G24    30.03F
MIDLAND        SUNNY     90  33  13 N15       30.05F
ODESSA         SUNNY     90  27  10 N9        30.06F
SAN ANGELO     SUNNY     86  47  25 SW17      30.00F
SONORA         SUNNY     82  46  28 SW12      30.10F HAZE
SWEETWATER     SUNNY     86  34  15 W6G16     30.04F
WINK           SUNNY     91  19   7 N13       30.05F
$$

TXZ055-058-074-075-080-082-292000-
FAR WEST/SOUTHWEST MOUNTAINS/TRANS PECOS

CITY           SKY/WX    TMP DP  RH WIND       PRES   REMARKS
ALPINE         SUNNY     83  14   7 E5G16     30.25F
DRYDEN           N/A     85  44  23 S10       30.03F
EL PASO        MOSUNNY   81   4   5 CALM      30.18F
FORT STOCKTON  SUNNY     85  24  11 NW9       30.10F
GUADALUPE PASS SUNNY     78  16   9 SW14G24   30.27F
MARFA          SUNNY     82  21  10 NW7G21    30.23F
PECOS          SUNNY     86  33  14 NW12      30.07F
PRESIDIO       FAIR      84  31  14 S8        30.13F
$$

TXZ014-016-019-021>030-083-292000
TEXAS TECH WEST TEXAS MESONET/TEXAS PANHANDLE/NORTHERN SOUTH PLAINS

CITY           SKY/WX    TMP DP  RH WIND       PRES   REMARKS
ABERNATHY 5ENE   N/A     79  27  14 NE26      30.11S
AMARILLO 9NNE    N/A     73  30  20 N20       30.19S
AMARILLO 7SSE    N/A     72  33  23 N25       30.20S
AMHERST 1NE      N/A     78  26  15 N26       30.15S
BOOTLEG 11WNW    N/A     70  30  22 N24       30.25S
CANADIAN 6E      N/A     75  28  17 N29       30.12S
CAPROCK CYN SP   N/A     78  32  18 N17G29    30.10R
CHILDRESS 2NNE   N/A     80  35  19 N30G40    30.04R
CLARENDON 2WSW   N/A     76  31  19 N35       30.10S
CLAUDE 12SW      N/A     72  33  24 N29       30.16R
DIMMITT 2NE      N/A     73  34  23 N28       30.18S
FLOYDADA 2NNE    N/A     79  26  14 N26       30.10S
FRIONA 2NE       N/A     72  31  22 N25G37    30.20S
GOODLETT 3W      N/A     83  40  21 N25G37    30.01R
HART 3N          N/A     75  32  20 N30       30.16S
HEREFORD 2NW     N/A     72  31  21 NE24      30.20S
MCLEAN 1E        N/A     74  30  19 N31G41    30.08F
MEMPHIS 1NE      N/A     80  30  16 N31G44    30.05R
MULESHOE 2SSW    N/A     77  31  18 N18G30    30.17F
OLTON 6S         N/A     78  28  16 N28       30.14S
PALO DURO SP     N/A     72  33  23 N16G25    30.18S
PAMPA 2E         N/A     71  27  19 N29       30.15F
PLAINVIEW 1S     N/A     76  30  18 N24       30.12S
SILVERTON 7ESE   N/A     78  31  18 N25G37    30.12S
TULIA 2ENE       N/A     74  33  22 N22G33    30.16R
TURKEY 2WSW      N/A     81  31  16 N28G39    30.07R
UMBARGER 3NNE    N/A     71  32  24 NE24      30.20R
$$

TXZ033>036-039>041-045>048-292000
TEXAS TECH WEST TEXAS MESONET/SOUTH PLAINS

CITY           SKY/WX    TMP DP  RH WIND       PRES   REMARKS
AIKEN 3WSW       N/A     78  30  17 N31       30.14R
ANDREWS 2NE      N/A     86  28  12 N15       30.08S
ANTON 6SSW       N/A     82  27  13 N28       30.12S
BROWNFIELD 2S    N/A     82  27  13 N24       30.10S
DENVR CTY 7WNW   N/A     82  26  13 N22       30.12S
GAIL 2ESE        N/A     87  35  15 N15       30.01F
LAMESA 2SE       N/A     87  29  12 N15       30.06F
LEVELLAND 4S     N/A     81  24  12 N24       30.13R
LUBBOCK 3WNW     N/A     82  27  13 N21G32    30.10S
MORTON 1ENE      N/A     80  24  12 N24G33    30.15S
ODONNELL 1N      N/A     87  25  10 N24       30.07S
PLAINS 3N        N/A     81  28  14 NE23      30.13F
REESE CENTER     N/A     81  24  12 N30G40    30.11S
SEAGRAVES 1SW    N/A     84  28  13 N18       30.10S
SEMINOLE 2NNE    N/A     85  28  13 N20G30    30.09F
SLATON 2NE       N/A     83  29  14 N23G36    30.07S
SNYDER 3E        N/A     88  32  13 NW13      30.01S
SUNDOWN 8SW      N/A     82  26  13 N21G30    30.13F
TAHOKA 3NNE      N/A     85  30  13 N22       30.07S
WOLFFORTH 6SSW   N/A     84  31  14 N26       30.10S
$$

TXZ031-032-036>038-042>044-292000-
TEXAS TECH WEST TEXAS MESONET/ROLLING PLAINS

CITY           SKY/WX    TMP DP  RH WIND       PRES   REMARKS
ASPERMONT 3NE    N/A     87  38  17 N16       29.98R
FLUVANNA 3WNW    N/A     87  31  13 N14       30.03S
GRAHAM 5SSW      N/A     85  27  12 N25       30.04S
GUTHRIE 10WSW    N/A     85  35  16 N26G36    30.00R
HASKELL 1NW      N/A     86  44  22 NW7       29.95F
JAYTON 1SSE      N/A     86  35  16 N18       30.00R
KNOX CITY 3NW    N/A     88  35  15 NW15      29.96S
LK A HENRY 1NW   N/A     88  36  16 N16       30.01S
NORTHFIELD 1S    N/A     82  33  17 N25G36    30.06R
ODELL 4ENE       N/A     80  49  33 N16       30.01R
PADUCAH 10SW     N/A     84  36  18 N26G38    30.02R
POST 1NE         N/A     87  31  13 N23       30.03S
RRING SPRGS 3N   N/A     81  36  20 N28       30.06R
SPUR 1W          N/A     85  29  13 N25       30.01S
WEINERT 2NNE     N/A     87  46  23 N8        29.96S
WHITE RVR 6NE    N/A     85  32  15 N25G36    30.04R
$$

TXZ052-054-060>062-072-078-127-140-154-169-292000-
TEXAS TECH WEST TEXAS MESONET/PERMIAN BASIN/
CONCHO VALLEY/BIG COUNTRY/EDWARDS PLATEAU

CITY           SKY/WX    TMP DP  RH WIND       PRES   REMARKS
COYANOSA 2N      N/A     87  33  14 NW7       30.07F
JUNCTION 1SSW    N/A     87  49  26 S13       30.04F
MERTZON 3NNE     N/A     88  46  23 SW7       30.02F
SAN ANGELO 7NW   N/A     85  46  25 S10       30.00F
STRLNG CT 4WSW   N/A     87  41  20 W6        30.02F
ST LAWRNCE 5SW   N/A     88  31  13 NW10      30.04F
SWEETWATR 11SW   N/A     86  41  20 W8        30.03S
WALL 1E          N/A     86  43  22 S14       30.01F
$$

TXZ055-058-074-075-080-082-292000-
TEXAS TECH WEST TEXAS MESONET/FAR WEST/SOUTHWEST MOUNTAINS/TRANS PECOS

CITY           SKY/WX    TMP DP  RH WIND       PRES   REMARKS
PRSMN GAP BBNP   N/A     89  29  11 S12       30.09F
$$



USA.gov is the U.S. government's official web portal to all federal, state and local government web resources and services.